Home > Time Zones > World Clock > Weather > U.S.A. > Gary > Past weeks

Flag for U.S.A. Weather past 2 weeks in Gary, Indiana, U.S.A.

Now
76 °F

Clear.


Feels Like: 77 °F
Forecast: 71 / 83 °F
Wind: No wind

Location: Lansing Municipal Airport

Current Time: Jul 29, 2015 at 12:17:03 AM

Latest Report: Jul 28, 2015 at 11:55 PM


Visibility: 7 mi

Pressure: 29.96 "Hg

Humidity: 83%

Dew point: 71 °F

Location of GaryLocation

Historic Weather in Gary — Graph

°F

Gary temperature yesterday

Maximum temperature yesterday: 90 °F (at 3:35 PM)
Minimum temperature yesterday: 66 °F (at 5:55 AM)
Average temperature yesterday: 79 °F

Past Weeks' High & Low Weather Summary

 TemperatureHumidityPressure
High91 °F (Jul 17, 4:15 PM)93% (Jul 19, 5:55 AM)30.06 "Hg (Jul 19, 5:55 AM)
Low58 °F (Jul 22, 5:55 AM)27% (Jul 27, 3:55 PM)29.55 "Hg (Jul 14, 12:15 AM)
Average74 °F67%29.91 "Hg
* Reported Jul 13 10:15 PM — Jul 28 10:55 PM, Gary, Weather by CustomWeather, © 2015

Note: Actual official high and low records may vary slightly from our data, if they occured in-between our weather recording intervals... More about our weather records

Advertising

Gary weather history for previous 24 hours

 ConditionsComfort  
Time TempWeatherWind HumidityBarometerVisibility
10:55 PM
Tue, Jul 28
76 °FClear.5 mph80%29.95 "Hg7 mi
10:15 PM76 °FClear.3 mph79%29.96 "Hg7 mi
9:55 PM77 °FClear.3 mph77%29.96 "Hg7 mi
9:35 PM81 °FClear.No wind66%29.96 "Hg10 mi
9:15 PM81 °FClear.3 mph67%29.96 "Hg10 mi
8:55 PM80 °FClear.No wind68%29.95 "Hg10 mi
8:35 PM80 °FClear.3 mph69%29.94 "Hg10 mi
7:55 PM83 °FSunny.No wind64%29.92 "Hg10 mi
7:35 PM85 °FSunny.No wind59%29.92 "Hg10 mi
7:15 PM86 °FSunny.3 mph55%29.92 "Hg10 mi
6:55 PM85 °FSunny.3 mph57%29.92 "Hg10 mi
6:35 PM86 °FSunny.5 mph52%29.91 "Hg10 mi
6:15 PM87 °FScattered clouds.8 mph49%29.91 "Hg10 mi
5:55 PM88 °FScattered clouds.8 mph49%29.91 "Hg10 mi
4:55 PM90 °FSunny.8 mph44%29.88 "Hg10 mi
4:15 PM90 °FScattered clouds.7 mph45%29.91 "Hg10 mi
3:55 PM90 °FScattered clouds.6 mph44%29.94 "Hg10 mi
3:35 PM90 °FScattered clouds.3 mph45%29.95 "Hg10 mi
3:15 PM90 °FScattered clouds.6 mph44%29.96 "Hg10 mi
2:55 PM90 °FScattered clouds.8 mph45%29.96 "Hg10 mi
2:35 PM89 °FSunny.8 mph47%29.96 "Hg10 mi
2:15 PM89 °FSunny.9 mph47%29.97 "Hg10 mi
1:55 PM89 °FSunny.10 mph48%29.97 "Hg10 mi
1:15 PM87 °FScattered clouds.9 mph51%29.99 "Hg10 mi
12:55 PM86 °FBroken clouds.9 mph54%29.99 "Hg10 mi
12:35 PM85 °FPartly sunny.5 mph56%29.99 "Hg10 mi
12:15 PM87 °FPartly sunny.6 mph54%29.99 "Hg10 mi
11:55 AM86 °FScattered clouds.7 mph53%29.99 "Hg10 mi
11:35 AM86 °FPartly sunny.5 mph55%30.00 "Hg10 mi
11:15 AM84 °FPartly sunny.5 mph56%30.00 "Hg10 mi
10:55 AM84 °FPartly sunny.No wind56%30.00 "Hg10 mi
10:35 AM84 °FScattered clouds.8 mph58%29.99 "Hg10 mi
10:15 AM84 °FSunny.7 mph57%29.99 "Hg10 mi
9:55 AM83 °FSunny.7 mph57%29.98 "Hg10 mi
9:35 AM82 °FSunny.7 mph55%29.99 "Hg10 mi
9:15 AM81 °FSunny.8 mph54%29.99 "Hg10 mi
8:55 AM80 °FSunny.8 mph54%30.00 "Hg10 mi
8:35 AM79 °FSunny.6 mph58%30.01 "Hg10 mi
8:15 AM77 °FSunny.3 mph62%30.01 "Hg10 mi
7:55 AM75 °FSunny.6 mph64%30.01 "Hg10 mi
7:35 AM73 °FScattered clouds.3 mph68%30.01 "Hg10 mi
7:15 AM72 °FScattered clouds.3 mph72%30.00 "Hg10 mi
6:55 AM70 °FBroken clouds.5 mph76%30.00 "Hg10 mi
6:35 AM69 °FBroken clouds.3 mph77%30.00 "Hg10 mi
6:15 AM67 °FSunny.3 mph79%30.00 "Hg10 mi
5:55 AM66 °FSunny.3 mph81%29.99 "Hg10 mi
5:35 AM68 °FClear.No wind78%29.99 "Hg10 mi
5:15 AM67 °FClear.3 mph81%29.99 "Hg10 mi
4:55 AM67 °FClear.No wind78%29.99 "Hg10 mi
4:15 AM69 °FClear.3 mph75%29.99 "Hg10 mi
3:55 AM70 °FClear.No wind73%29.99 "Hg10 mi
3:35 AM70 °FClear.No wind73%29.99 "Hg10 mi
3:15 AM69 °FClear.5 mph76%29.99 "Hg10 mi
2:55 AM70 °FClear.5 mph75%29.99 "Hg10 mi
2:15 AM71 °FClear.5 mph75%30.00 "Hg10 mi
1:55 AM71 °FClear.5 mph77%30.00 "Hg10 mi
1:35 AM71 °FClear.3 mph78%30.00 "Hg10 mi
1:15 AM71 °FClear.3 mph79%29.99 "Hg10 mi
12:55 AM72 °FClear.3 mph80%29.99 "Hg10 mi
12:35 AM72 °FClear.3 mph80%30.00 "Hg10 mi
12:15 AM72 °FClear.5 mph79%30.00 "Hg10 mi
Weather by CustomWeather, © 2015

See weather overviewHow to use our weather pages